Regional Weather Roundup
Issued by NWS Spokane, WA

Home | Current Version | Previous Version | Text Only | Print | Product List | Glossary On
Versions: 1 2 3 4 5 6 7 8 9 10 11 12 13 14 15 16 17 18 19 20 21 22 23 24 25 26 27 28 29 30 31 32 33 34 35 36 37 38 39 40 41 42 43 44 45 46 47 48 49 50
181
NZUS01 KOTX 191710
RWROTX

Eastern Washington/Northern Idaho Roundup
National Weather Service, Spokane WA
1000 AM PDT TUE SEP 19 2017

Note: "fair" indicated few or no clouds below 12,000 feet with no
significant weather and/or obstructions to visibility.

...Northeast Washington and Northern Idaho Panhandle...

CITY           SKY/WX    TMP DP  RH WIND       PRES   REMARKS
Spokane Intl   CLOUDY    46  44  93 SW13      29.73R
Spokane Downto CLOUDY    49  44  83 SW10G18   29.74R
Coeur d Alene  LGT RAIN  44  42  93 SE7       29.74R
Deer Park      CLOUDY    47  44  90 SW7       29.73R
Sandpoint      DRIZZLE   45  43  93 SW5       29.72S
Bonners Ferry  FAIR      43  41  93 CALM      29.71S

...Southeast Washington and southern Idaho Panhandle...

CITY           SKY/WX    TMP DP  RH WIND       PRES   REMARKS
Walla Walla    LGT RAIN  53  45  74 SW12      29.79R
Pullman/Moscow LGT RAIN  45  41  86 SW13      29.78R FOG
Lewiston       LGT RAIN  52  48  86 NE5       29.78R
Lowell           N/A     48  44  86 CALM      29.83S
Grangeville    CLOUDY    45  37  76 SW13G18   29.78R

...Columbia Basin...

CITY           SKY/WX    TMP DP  RH WIND       PRES   REMARKS
Ephrata        CLOUDY    54  37  52 SW6       29.71R
Moses Lake     CLOUDY    54  40  59 SW10      29.72R
Pasco          CLOUDY    57  41  55 SW20G29   29.77R
Richland       CLOUDY    58  44  59 S13G20    29.76R
Hermiston      CLOUDY    58  43  57 SW15G21   29.79R
Pendleton      LGT RAIN  52  41  66 SW16      29.79R

...East Slopes Cascades...

CITY           SKY/WX    TMP DP  RH WIND       PRES   REMARKS
The Dalles     CLOUDY    57  47  69 N6        29.81R
Yakima         CLOUDY    53  43  68 CALM      29.74R
Ellensburg     PTSUNNY   51  42  71 W6        29.73R
Wenatchee      PTSUNNY   53  41  63 VRB5      29.71R
Omak           CLOUDY    51  36  56 NE5       29.72R
Sunnyside      CLOUDY    53  41  65 CALM      29.76R

...Southern British Columbia...

CITY           SKY/WX    TMP DP  RH WIND       PRES   REMARKS
Penticton      PTSUNNY   50  37  62 CALM      29.70F
Castlegar      PTSUNNY   48  39  71 S5        29.70S
Cranbrook      MOSUNNY   46  37  71 E9        29.66F
Osoyoos          N/A     50  37  62 S1          N/A
Creston          N/A     46  45  93 S2          N/A

...Western Montana...

CITY           SKY/WX    TMP DP  RH WIND       PRES   REMARKS
Kalispell      CLOUDY    46  41  82 CALM      29.71S
Libby            N/A     43  43 100 CALM      29.71S
Missoula       MOSUNNY   47  41  80 SE6       29.74S

...Neighboring Cities...

CITY           SKY/WX    TMP DP  RH WIND       PRES   REMARKS
Seattle        PTSUNNY   55  49  80 S14       29.75R
Portland       PTSUNNY   56  52  86 S16       29.83S
Boise          LGT RAIN  49  40  71 W7        29.92R
Great Falls    MOSUNNY   51  31  46 SW17G26   29.64S
Calgary        MOSUNNY   46  30  53 S5        29.55F



USA.gov is the U.S. government's official web portal to all federal, state and local government web resources and services.